Regional Weather Roundup
Issued by NWS

Home | Current Version | Previous Version | Text Only | Print | Product List | Glossary Off
Versions: 1 2 3 4 5 6 7 8 9 10 11 12 13 14 15 16 17 18 19 20 21 22 23 24 25 26 27 28 29 30 31 32 33 34 35 36 37 38 39 40 41 42 43 44 45 46 47 48 49 50

000
ASUS43 KBIS 150010
RWRND

NORTH DAKOTA REGIONAL WEATHER ROUNDUP
NATIONAL WEATHER SERVICE BISMARCK ND
700 PM CDT SUN SEP 14 2014

NOTE: "FAIR" INDICATES FEW OR NO CLOUDS BELOW 12,000 FEET WITH NO
SIGNIFICANT WEATHER AND/OR OBSTRUCTIONS TO VISIBILITY.


NDZ001>003-009>011-017-150100-
NORTHWEST NORTH DAKOTA

CITY           SKY/WX    TMP DP  RH WIND       PRES   REMARKS
WILLISTON      PTSUNNY   56  30  37 SE3       30.16S
6HR MIN TEMP:  53; 6HR MAX TEMP:  59;

MINOT          CLOUDY    53  34  48 NW7       30.15R
MINOT AFB      MOCLDY    54  33  45 N7        30.14R
$$

NDZ018>021-031>035-040>046-150100-
SOUTHWEST NORTH DAKOTA

CITY           SKY/WX    TMP DP  RH WIND       PRES   REMARKS
BISMARCK       PTCLDY    56  33  42 N8        30.15R
6HR MIN TEMP:  53; 6HR MAX TEMP:  62;

DICKINSON      CLOUDY    53  32  44 CALM      30.14R
GARRISON         N/A     54  34  46 N3        30.15R
6HR MIN TEMP:  53; 6HR MAX TEMP:  59;

HETTINGER ARPT CLOUDY    54  31  41 NE8       30.15R
$$

NDZ004>008-012>016-024-026-027-054-150100-
NORTHEAST NORTH DAKOTA

CITY           SKY/WX    TMP DP  RH WIND       PRES   REMARKS
GRAND FORKS    MOCLDY    54  42  64 NW5       30.11R
GRND FRKS AFB  CLOUDY    54  43  66 NW3       30.12R
DEVILS LAKE    CLOUDY    54  34  47 NW7       30.12R
$$

NDZ022-023-025-028>030-036>039-047>053-150100-
SOUTHEAST NORTH DAKOTA

CITY           SKY/WX    TMP DP  RH WIND       PRES   REMARKS
FARGO          CLOUDY    56  41  57 NW3       30.12R
6HR MIN TEMP:  56; 6HR MAX TEMP:  60;

JAMESTOWN      MOCLDY    54  39  57 NW7       30.13R
$$




USA.gov is the U.S. government's official web portal to all federal, state and local government web resources and services.